Location: Pian di Sc�
(43.6333°N, 11.5500°E)
Time: 08:35:34
(UTC+00:00)

Cosmos 2266 Rocket - Pass Details

Date: 07 August 2020
Orbit: 934 x 1008 km, 82.9° (Epoch: 18 September)

Event Time Altitude Azimuth Distance (km) Brightness Sun altitude
Rises 02:31:27 0° 346° (NNW) 3,738 7.5 -15.7°
Reaches altitude 10° 02:34:06 10° 341° (NNW) 2,777 6.7 -15.4°
Maximum altitude 02:40:06 46° 270° (W) 1,312 4.4 -14.6°
Enters shadow 02:44:58 15° 204° (SSW) 2,363 5.5 -13.9°
